{"data":{"norad_id":64804,"intl_designator":"2025-150Q","name":"STARLINK-34633","alt_names":[],"object_type":"PAYLOAD","status":"ACTIVE","operator":null,"country":"US","launch_date":"2025-07-16","launch_site_code":"AFWTR","launch_vehicle":null,"mission":null,"orbit_class":"UNKNOWN","rcs_meters":null,"size_class":null,"mass_kg":null,"dimensions":null,"purposes":["comms"],"wikipedia_slug":null,"has_3d_model":false,"image_url":null,"decayed_at":null,"tle_current":{"epoch":"2026-05-24T20:08:52.599552Z","epoch_age_seconds":99085,"freshness":"FRESH","line1":"1 64804U 25150Q   26144.83949768  .00000831  00000+0  77430-4 0  9992","line2":"2 64804  70.0005 302.4362 0002707 267.9107  92.1742 14.98338765 47925","mean_motion":14.98338765,"eccentricity":0.0002707,"inclination_deg":70.0005,"raan_deg":302.4362,"arg_perigee_deg":267.9107,"mean_anomaly_deg":92.1742,"bstar":7.743e-5,"rev_number":4792,"period_min":96.106436917822,"perigee_km":570.1473761588,"apogee_km":573.91019591536,"semimajor_km":6950.1657860371,"source":"CELESTRAK","updated_at":"2026-05-25T13:38:20.566924Z"}}}